Location: Dackenheim
(49.5215°N, 8.1854°E)
Time: 04:02:47
(UTC+00:00)

DOVE 4 - Visible Passes

Search period start: 08 March 2026 00:00
Search period end: 18 March 2026 00:00
Orbit: 572 x 756 km, 97.7° (Epoch: 7 March)

Date Brightness Start Highest point End Pass type
(mag) Time Alt. Az. Time Alt. Az. Time Alt. Az.
8 Mar ? 04:45:38 10° ESE 04:48:23 18° ENE 04:51:07 10° NNE visible
8 Mar ? 18:09:58 10° NE 18:13:40 25° E 18:17:30 10° SSE visible
8 Mar ? 19:46:38 10° N 19:50:50 43° WNW 19:55:15 10° SW visible
9 Mar ? 05:15:19 10° SE 05:18:57 32° ENE 05:22:38 10° N visible
9 Mar ? 18:40:20 10° NNE 18:44:41 47° E 18:49:13 10° S visible
9 Mar ? 20:17:54 10° N 20:21:30 24° WNW 20:25:12 10° WSW visible
10 Mar ? 19:11:03 10° NNE 19:15:34 89° WNW 19:20:20 10° SSW visible
10 Mar ? 20:49:42 10° NNW 20:52:01 14° WNW 20:54:23 10° W visible
11 Mar ? 04:41:17 10° E 04:43:51 17° ENE 04:46:29 10° NNE visible
11 Mar ? 18:05:28 10° NE 18:09:08 23° E 18:12:56 10° SE visible
11 Mar ? 19:42:00 10° N 19:46:21 47° WNW 19:50:54 10° SW visible
12 Mar ? 05:10:50 10° SE 05:14:23 30° ENE 05:18:02 10° N visible
12 Mar ? 18:35:46 10° NNE 18:40:09 44° E 18:44:44 10° S visible
12 Mar ? 20:13:13 10° N 20:17:00 26° WNW 20:20:56 10° WSW visible
13 Mar ? 19:06:26 10° NNE 19:11:03 84° ESE 19:15:52 10° SSW visible
13 Mar ? 20:44:51 10° NNW 20:47:32 16° WNW 20:50:15 10° W visible
14 Mar ? 04:36:52 10° E 04:39:19 16° ENE 04:41:48 10° NNE visible
14 Mar ? 18:00:56 10° NE 18:04:34 22° E 18:08:19 10° SE visible
14 Mar ? 19:37:21 10° N 19:41:49 52° WNW 19:46:30 10° SW visible
15 Mar ? 05:06:18 10° SE 05:09:48 28° ENE 05:13:25 10° N visible
15 Mar ? 18:31:10 10° NNE 18:35:35 41° E 18:40:10 10° SSE visible
15 Mar ? 20:08:30 10° N 20:12:28 29° WNW 20:16:35 10° SW visible
16 Mar ? 19:01:47 10° NNE 19:06:29 78° ESE 19:11:22 10° S visible
16 Mar ? 20:40:01 10° NNW 20:43:00 17° WNW 20:46:03 10° W visible
17 Mar ? 04:32:25 10° E 04:34:43 15° ENE 04:37:05 10° NNE visible
17 Mar ? 19:32:39 10° N 19:37:15 57° WNW 19:42:02 10° SSW visible
